TimeMDT,TemperatureF,Dew PointF,Humidity,Sea Level PressureIn,VisibilityMPH,Wind Direction,Wind SpeedMPH,Gust SpeedMPH,PrecipitationIn,Events,Conditions,WindDirDegrees,DateUTC
12:53 AM,57.9,33.1,39,29.57,10.0,SSW,17.3,-,N/A,,Clear,200,2012-10-21 06:53:00
1:53 AM,57.0,33.1,40,29.56,10.0,South,17.3,-,N/A,,Clear,190,2012-10-21 07:53:00
2:53 AM,55.0,33.1,43,29.57,10.0,SSW,13.8,-,N/A,,Clear,200,2012-10-21 08:53:00
3:53 AM,53.1,32.0,45,29.57,10.0,SW,12.7,-,N/A,,Clear,230,2012-10-21 09:53:00
4:53 AM,46.9,30.0,52,29.60,10.0,WSW,12.7,-,N/A,,Clear,240,2012-10-21 10:53:00
5:53 AM,48.0,26.1,42,29.62,10.0,West,9.2,-,N/A,,Clear,270,2012-10-21 11:53:00
6:53 AM,43.0,25.0,49,29.66,10.0,West,8.1,-,N/A,,Clear,270,2012-10-21 12:53:00
7:53 AM,46.9,25.0,42,29.67,10.0,WNW,4.6,-,N/A,,Clear,290,2012-10-21 13:53:00
8:53 AM,57.0,25.0,29,29.68,10.0,NNW,15.0,-,N/A,,Clear,330,2012-10-21 14:53:00
9:53 AM,62.1,25.0,24,29.70,10.0,North,16.1,-,N/A,,Clear,350,2012-10-21 15:53:00
10:53 AM,64.9,26.1,23,29.69,10.0,North,17.3,-,N/A,,Clear,350,2012-10-21 16:53:00
11:53 AM,68.0,28.0,22,29.69,10.0,North,17.3,-,N/A,,Clear,350,2012-10-21 17:53:00
12:53 PM,70.0,30.9,24,29.67,10.0,North,16.1,25.3,N/A,,Clear,360,2012-10-21 18:53:00
1:53 PM,72.0,32.0,23,29.65,10.0,North,19.6,25.3,N/A,,Clear,10,2012-10-21 19:53:00
2:53 PM,73.0,33.1,23,29.66,10.0,North,16.1,24.2,N/A,,Clear,10,2012-10-21 20:53:00
3:53 PM,71.1,32.0,24,29.67,10.0,NNE,17.3,24.2,N/A,,Clear,30,2012-10-21 21:53:00
4:53 PM,70.0,30.0,23,29.70,10.0,NNE,15.0,20.7,N/A,,Clear,30,2012-10-21 22:53:00
5:53 PM,61.0,30.9,32,29.73,10.0,North,9.2,-,N/A,,Clear,10,2012-10-21 23:53:00
6:53 PM,51.1,30.0,44,29.79,10.0,North,5.8,-,N/A,,Clear,350,2012-10-22 00:53:00
7:53 PM,48.9,30.9,50,29.81,10.0,NNW,5.8,-,N/A,,Clear,340,2012-10-22 01:53:00
8:53 PM,48.9,32.0,52,29.80,10.0,NNE,9.2,-,N/A,,Clear,20,2012-10-22 02:53:00
9:53 PM,48.9,34.0,56,29.79,10.0,North,9.2,-,N/A,,Clear,10,2012-10-22 03:53:00
10:53 PM,46.0,34.0,63,29.80,10.0,NNE,5.8,-,N/A,,Clear,20,2012-10-22 04:53:00
11:53 PM,43.0,34.0,71,29.80,10.0,NNE,4.6,-,N/A,,Clear,20,2012-10-22 05:53:00